Date String (YYYY-MM-DD hh:mm:ss) UTC,Instrument flags,absolute air pressure of the measurement (hPa),sample flow rate (lpm),inlet stack bypass flow (lpm),air temperature of the measurement (°C),ambient temperature measured by the external sensor (°C),aerosol sample conditioner tube jacket temperature (°C),OPC LED temperature (°C),internal box temperature (°C),relative humidity of the measurement (%),span deviation,mass concentration of particles derived from Lorenz-Mie calculation of OPC scattering (μg/m³),mass concentration of particles derived from Lorenz-Mie calculation of OPC scattering (μg/m³),mass concentration of particles derived from Lorenz-Mie calculation of OPC scattering (μg/m³)
DateTimeUTC,F1_M11,P_M11,Q1_M11,Q2_M11,T1_M11,T2_M11,T3_M11,T4_M11,T5_M11,U1_M11,ZSPAN_M11,X2_M11,X0_M11,X1_M11
2023-11-15 20:00:00,SystemResetWarning,0831.5,5.00,000.00,028.2,027.3,000.0,036.5,029.7,7.0,0000.0,0003.59,0011.23,0002.67
2023-11-15 20:01:00,SystemResetWarning,0831.4,4.99,000.00,028.3,027.3,000.0,036.5,029.7,7.2,0000.0,0003.58,0011.68,0002.64
2023-11-15 20:02:00,SystemResetWarning,0831.4,5.00,000.00,028.3,027.4,000.0,036.5,029.8,6.9,0000.0,0003.57,0012.28,0002.62
2023-11-15 20:03:00,SystemResetWarning,0831.4,5.00,000.00,028.3,027.5,000.0,036.5,029.8,6.6,0000.0,0003.56,0012.35,0002.60
2023-11-15 20:04:00,SystemResetWarning,0831.5,5.01,000.00,028.3,027.5,000.0,036.5,029.8,6.8,0000.0,0003.50,0011.45,0002.57
2023-11-15 20:05:00,SystemResetWarning,0831.5,5.00,000.00,028.4,027.6,000.0,036.5,029.9,6.9,0000.0,0003.45,0011.31,0002.52
2023-11-15 20:06:00,SystemResetWarning,0831.4,5.00,000.00,028.4,027.6,000.0,036.6,029.9,7.0,0000.0,0003.41,0010.55,0002.46
2023-11-15 20:07:00,SystemResetWarning,0831.4,5.00,000.00,028.4,027.7,000.0,036.6,029.9,7.0,0000.0,0003.30,0010.01,0002.42
2023-11-15 20:08:00,SystemResetWarning,0831.5,5.00,000.00,028.5,027.7,000.0,036.6,030.0,7.0,0000.0,0003.25,0009.79,0002.38
2023-11-15 20:09:00,SystemResetWarning,0831.4,5.00,000.00,028.5,027.7,000.0,036.6,030.0,7.0,0000.0,0003.18,0010.17,0002.35
2023-11-15 20:10:00,SystemResetWarning,0831.4,4.99,000.00,028.5,027.8,000.0,036.7,030.0,7.1,0000.0,0003.18,0011.12,0002.33
2023-11-15 20:11:00,SystemResetWarning,0831.4,4.99,000.00,028.6,027.7,000.0,036.7,030.1,7.2,0000.0,0003.17,0011.28,0002.33
2023-11-15 20:12:00,SystemResetWarning,0831.3,5.01,000.00,028.6,026.2,000.0,036.7,030.0,7.2,0000.0,0003.19,0010.60,0002.32
2023-11-15 20:13:00,SystemResetWarning,0831.3,4.99,000.00,028.4,024.3,000.0,036.6,029.6,7.1,0000.0,0003.22,0010.05,0002.33
2023-11-15 20:14:00,SystemResetWarning,0831.3,5.01,000.00,028.3,024.0,000.0,036.5,029.3,7.2,0000.0,0003.22,0009.92,0002.35
2023-11-15 20:15:00,SystemResetWarning,0831.2,5.01,000.00,028.1,024.4,000.0,036.5,028.9,7.0,0000.0,0003.25,0010.03,0002.35
2023-11-15 20:16:00,SystemResetWarning,0831.3,4.99,000.00,028.0,024.8,000.0,036.4,028.9,6.7,0000.0,0003.28,0010.25,0002.38
2023-11-15 20:17:00,SystemResetWarning,0831.3,5.01,000.00,027.9,025.2,000.0,036.4,029.0,6.7,0000.0,0003.30,0011.09,0002.40
2023-11-15 20:18:00,SystemResetWarning,0831.2,4.99,000.00,027.9,025.6,000.0,036.4,029.1,6.6,0000.0,0003.32,0011.48,0002.42
2023-11-15 20:19:00,SystemResetWarning,0831.2,4.99,000.00,027.9,025.9,000.0,036.3,029.3,6.7,0000.0,0003.33,0011.92,0002.46
2023-11-15 20:20:00,SystemResetWarning,0831.2,5.00,000.00,027.9,026.2,000.0,036.3,029.3,6.9,0000.0,0003.38,0010.81,0002.51
2023-11-15 20:21:00,SystemResetWarning,0831.2,5.00,000.00,028.0,026.4,000.0,036.3,029.4,6.9,0000.0,0003.37,0010.15,0002.54
2023-11-15 20:22:00,SystemResetWarning,0831.2,5.00,000.00,028.0,026.6,000.0,036.3,029.5,7.0,0000.0,0003.37,0009.94,0002.53
2023-11-15 20:23:00,SystemResetWarning,0831.1,5.01,000.00,028.0,026.8,000.0,036.3,029.5,6.9,0000.0,0003.31,0009.74,0002.48
2023-11-15 20:24:00,SystemResetWarning,0831.1,5.01,000.00,028.1,026.9,000.0,036.3,029.6,6.8,0000.0,0003.27,0010.14,0002.44
2023-11-15 20:25:00,SystemResetWarning,0831.1,5.00,000.00,028.1,027.1,000.0,036.3,029.7,6.6,0000.0,0003.22,0010.30,0002.40
2023-11-15 20:26:00,SystemResetWarning,0831.1,5.00,000.00,028.1,027.2,000.0,036.3,029.7,6.7,0000.0,0003.20,0011.05,0002.37
2023-11-15 20:27:00,SystemResetWarning,0831.1,5.00,000.00,028.2,027.3,000.0,036.3,029.8,6.7,0000.0,0003.23,0011.21,0002.34
2023-11-15 20:28:00,SystemResetWarning,0831.1,4.99,000.00,028.2,027.4,000.0,036.4,029.8,6.5,0000.0,0003.23,0010.42,0002.33
2023-11-15 20:29:00,SystemResetWarning,0831.1,5.00,000.00,028.3,027.4,000.0,036.4,029.9,6.5,0000.0,0003.26,0010.35,0002.31
2023-11-15 20:30:00,SystemResetWarning,0831.1,5.00,000.00,028.3,027.5,000.0,036.4,029.9,6.5,0000.0,0003.27,0009.89,0002.27
2023-11-15 20:31:00,SystemResetWarning,0830.9,5.00,000.00,028.3,027.6,000.0,036.4,029.9,6.8,0000.0,0003.28,0010.79,0002.22
2023-11-15 20:32:00,SystemResetWarning,0831.0,5.00,000.00,028.4,027.6,000.0,036.5,029.9,6.8,0000.0,0003.31,0011.11,0002.20
2023-11-15 20:33:00,SystemResetWarning,0831.0,4.98,000.00,028.4,026.7,000.0,036.5,029.9,6.8,0000.0,0003.34,0010.68,0002.21
2023-11-15 20:34:00,SystemResetWarning,0831.0,5.01,000.00,028.3,024.5,000.0,036.4,029.5,7.0,0000.0,0003.35,0010.80,0002.23
2023-11-15 20:35:00,SystemResetWarning,0830.9,5.01,000.00,028.2,023.8,000.0,036.4,029.3,6.9,0000.0,0003.35,0010.73,0002.24
2023-11-15 20:36:00,SystemResetWarning,0830.9,5.00,000.00,028.0,024.0,000.0,036.3,028.9,7.0,0000.0,0003.32,0010.64,0002.24
2023-11-15 20:37:00,SystemResetWarning,0830.9,4.99,000.00,027.8,024.5,000.0,036.3,028.8,7.1,0000.0,0003.29,0009.84,0002.27
2023-11-15 20:38:00,SystemResetWarning,0830.9,5.00,000.00,027.8,025.0,000.0,036.2,028.9,7.1,0000.0,0003.25,0009.77,0002.27
2023-11-15 20:39:00,SystemResetWarning,0830.9,5.01,000.00,027.8,025.4,000.0,036.2,029.0,7.2,0000.0,0003.28,0010.42,0002.28
2023-11-15 20:40:00,SystemResetWarning,0830.8,5.00,000.00,027.8,025.7,000.0,036.2,029.1,7.3,0000.0,0003.27,0010.74,0002.28
2023-11-15 20:41:00,SystemResetWarning,0830.8,4.99,000.00,027.8,026.0,000.0,036.1,029.2,7.3,0000.0,0003.26,0011.01,0002.28
2023-11-15 20:42:00,SystemResetWarning,0830.8,4.99,000.00,027.8,026.3,000.0,036.1,029.3,7.3,0000.0,0003.26,0010.22,0002.30
2023-11-15 20:43:00,SystemResetWarning,0830.9,5.00,000.00,027.8,026.5,000.0,036.1,029.4,7.3,0000.0,0003.23,0009.74,0002.31
2023-11-15 20:44:00,SystemResetWarning,0830.9,5.00,000.00,027.9,026.6,000.0,036.1,029.4,7.5,0000.0,0003.16,0009.55,0002.30
2023-11-15 20:45:00,SystemResetWarning,0830.8,5.01,000.00,027.9,026.8,000.0,036.2,029.4,7.4,0000.0,0003.22,0010.07,0002.31
2023-11-15 20:46:00,SystemResetWarning,0830.8,5.01,000.00,027.9,026.9,000.0,036.2,029.5,7.2,0000.0,0003.26,0010.28,0002.34
2023-11-15 20:47:00,SystemResetWarning,0830.8,5.00,000.00,028.0,027.0,000.0,036.2,029.5,7.2,0000.0,0003.31,0010.70,0002.35
2023-11-15 20:48:00,SystemResetWarning,0830.7,4.99,000.00,028.0,027.1,000.0,036.2,029.5,6.7,0000.0,0003.39,0011.13,0002.34
2023-11-15 20:49:00,SystemResetWarning,0830.8,4.99,000.00,028.0,027.2,000.0,036.2,029.6,6.9,0000.0,0003.39,0011.08,0002.33
2023-11-15 20:50:00,SystemResetWarning,0830.7,5.00,000.00,028.1,027.2,000.0,036.2,029.7,6.4,0000.0,0003.36,0010.82,0002.34
2023-11-15 20:51:00,SystemResetWarning,0830.8,5.01,000.00,028.1,027.3,000.0,036.2,029.7,6.4,0000.0,0003.35,0010.24,0002.33
2023-11-15 20:52:00,SystemResetWarning,0830.8,5.01,000.00,028.2,027.4,000.0,036.3,029.7,6.3,0000.0,0003.33,0010.19,0002.32
2023-11-15 20:53:00,SystemResetWarning,0830.8,5.00,000.00,028.2,027.4,000.0,036.3,029.8,6.4,0000.0,0003.31,0010.72,0002.30
2023-11-15 20:54:00,SystemResetWarning,0830.8,5.00,000.00,028.2,027.5,000.0,036.3,029.8,6.3,0000.0,0003.31,0010.48,0002.27
2023-11-15 20:55:00,SystemResetWarning,0830.8,5.00,000.00,028.3,027.5,000.0,036.3,029.8,6.2,0000.0,0003.32,0010.66,0002.24
2023-11-15 20:56:00,SystemResetWarning,0830.8,4.98,000.00,028.3,026.3,000.0,036.3,029.8,6.4,0000.0,0003.24,0010.35,0002.17
2023-11-15 20:57:00,SystemResetWarning,0830.8,5.01,000.00,028.2,024.1,000.0,036.3,029.4,6.6,0000.0,0003.16,0009.84,0002.09
2023-11-15 20:58:00,SystemResetWarning,0830.7,5.02,000.00,028.0,023.5,000.0,036.2,029.1,6.6,0000.0,0003.08,0008.87,0002.04
2023-11-15 20:59:00,SystemResetWarning,0830.7,4.99,000.00,027.9,023.8,000.0,036.2,028.7,6.8,0000.0,0002.91,0008.26,0001.99
